Lid_Strength_Index
0 -0 -0 -0 0 0 2 5 8 3 1 9 9 11 8 7 7 7 8 8 8 9 9 9 9 9 8 6 6 9 7 9 11 10 7 7 7 9 9 12 13 12 14 16
0 0 0 1 0 -0 1 6 6 4 4 12 11 8 8 8 8 8 8 9 8 7 9 12 9 8 7 7 7 9 7 11 13 12 9 7 9 8 8 9 10 14 17 15
-1 -0 0 1 1 -0 0 6 10 8 7 6 8 9 9 10 6 7 8 8 7 8 9 9 9 9 8 7 7 6 8 10 11 13 11 9 10 9 8 9 14 14 13 12
-1 -1 -1 0 0 0 1 5 8 5 12 11 9 8 8 10 10 7 7 9 8 9 10 10 10 8 8 7 8 7 7 11 10 9 8 9 9 9 9 10 10 12 12 10
-1 -1 -0 -1 -0 -0 3 7 6 4 6 7 9 9 10 10 8 8 9 8 7 7 9 9 10 8 8 9 7 7 7 11 10 12 9 9 11 10 9 9 9 9 9 10
-1 -1 -1 -0 -1 -1 4 2 2 4 6 7 9 10 9 9 8 8 6 7 7 8 8 6 6 6 7 7 8 8 8 9 11 13 10 10 12 12 11 9 8 8 11 8
-0 -1 -1 -0 -0 -0 1 2 3 5 8 7 8 7 7 8 8 9 7 6 8 6 4 4 5 6 7 7 7 6 8 9 10 12 11 16 10 7 7 8 7 7 7 7
-0 -0 -0 0 -0 -0 1 0 3 5 8 7 8 8 7 6 6 7 7 7 6 4 5 9 11 10 10 9 8 7 7 9 11 13 13 11 9 8 8 9 9 6 7 6
-0 -1 -0 0 -0 -0 0 0 -0 3 6 7 6 7 7 9 8 8 7 5 4 5 8 10 13 14 11 12 10 7 7 7 10 12 15 16 10 7 5 6 12 6 6 7
-1 -0 -0 -0 -1 -1 -0 1 -1 2 6 4 5 7 8 6 7 8 6 6 6 5 9 11 12 13 10 12 12 12 11 10 12 12 14 11 7 6 5 13 12 6 6 6
-0 0 -0 -0 -1 -1 0 1 -0 2 6 4 3 4 5 5 6 8 6 7 7 7 10 10 10 11 10 10 9 9 10 12 12 12 14 15 6 6 9 7 5 5 5 5
-0 -1 -0 -0 -0 -1 0 3 0 -0 4 5 2 1 1 3 4 5 5 6 6 6 8 8 8 10 8 9 12 7 11 8 10 9 10 6 5 5 4 4 5 5 5 4
-0 0 -0 -0 -0 -0 0 1 0 1 4 4 4 4 1 0 1 1 6 5 4 5 3 6 7 10 7 11 10 8 7 5 9 8 7 6 5 4 3 3 4 4 4 4
-0 -0 -0 0 -0 -0 -0 1 -0 1 3 8 6 1 2 -0 0 1 1 2 2 3 4 6 8 9 5 9 8 9 7 6 8 8 6 5 5 4 4 4 3 4 4 5
0 0 0 0 0 -0 -1 -0 -1 -1 3 7 6 3 1 1 1 2 1 2 3 5 6 7 8 6 7 6 7 8 6 7 9 10 6 6 5 4 3 4 4 4 5 6
0 1 0 0 0 -0 1 4 -0 -1 -0 4 8 3 3 2 1 2 3 3 3 4 5 6 5 4 6 9 10 6 5 5 4 6 4 4 4 4 3 4 4 5 6 5
1 0 0 0 0 1 3 4 1 -1 -1 4 7 7 3 2 2 3 3 2 3 4 6 6 6 6 6 8 11 7 6 5 4 4 3 5 4 4 3 3 4 5 5 5
0 0 0 0 1 1 2 0 -0 -1 1 2 7 8 6 2 6 7 3 5 4 5 6 5 6 5 6 10 7 6 5 5 5 4 3 4 3 3 3 4 5 7 7 7
0 0 1 1 2 3 2 -1 -0 -2 2 6 6 9 10 3 5 4 5 4 8 4 7 7 6 8 10 8 7 6 5 5 5 4 3 3 4 4 4 5 6 7 7 8
-0 0 3 7 2 -1 -1 2 5 4 3 3 7 4 8 5 6 7 7 7 8 9 7 5 9 9 6 5 4 4 4 4 4 5 5 5 5 5 4 6 6 7 8 8
1 5 5 1 -1 1 3 7 7 7 8 5 5 5 7 3 8 8 5 8 7 11 8 9 10 10 7 4 4 3 3 3 3 3 3 3 4 4 5 6 7 7 8 8
1 1 1 2 3 5 8 9 7 8 8 6 6 6 5 5 4 7 7 9 8 12 6 10 11 7 5 4 4 3 3 3 3 3 3 3 4 4 5 7 7 8 7 8
-0 2 5 5 6 10 11 11 10 9 7 5 5 7 5 5 5 7 7 11 11 6 10 11 8 5 5 4 4 4 3 3 3 3 3 4 5 5 6 8 8 8 9 9
5 7 10 8 10 9 8 8 7 5 5 5 5 6 6 5 8 8 11 8 8 12 13 11 7 6 6 5 5 5 7 8 6 6 7 8 9 9 9 9 9 9 10 11
5 5 9 8 6 5 5 4 5 4 4 5 6 6 5 7 9 7 8 11 13 11 10 8 7 6 6 7 7 7 8 9 9 9 9 10 10 9 10 9 9 9 10 11
4 5 7 5 7 9 7 6 6 3 4 4 4 7 9 9 8 10 10 11 12 9 7 6 5 7 8 8 8 9 9 9 9 9 9 9 10 10 10 10 10 11 11 11
7 7 5 6 6 8 7 6 5 3 5 8 6 10 11 8 10 11 8 10 8 7 6 5 6 8 8 9 9 9 9 9 9 9 9 9 9 10 10 11 11 10 11 11